User: anonymous   Login
Location: Unspecified
(0.0000°N, 0.0000°E)
Time: 13:37:11
(UTC+01:00)
Language:

Cosmos 1953 Rocket - Orbit

View from above orbital plane
View from above orbital plane
View from above satellite
View from above satellite

Ground track
Ground track

The orbit data is extracted from the following two-line orbital elements,

1 19211U 88050B   16045.15895580  .00000279  00000-0  31401-4 0  9993
2 19211  82.5276 299.7552 0020467 290.3658 222.7777 14.82865612494315
Epoch (UTC): 14 February 2016 03:48:53
Eccentricity: 0.0020467
inclination: 82.5276°
perigee height: 606 km
apogee height: 634 km
right ascension of ascending node: 299.7552°
argument of perigee: 290.3658°
revolutions per day: 14.82865612
mean anomaly at epoch: 222.7777°
orbit number at epoch: 49431

The dashed part of the orbit path shows where the satellite is in the earth's shadow,  

DLR